Lexington Weather

Lexington, Massachusetts, USA

34°F
4/16/2021 9:55am 
  • Lexington Conditions: Snow, Mist, Overcast
  • Temperature: 33.8°F / 1.0°CColder 1.8°F than last hour.
  • Dew Point: 32.5°FDecreased 1.5°Fsince last hour.
  • Relative Humidity: 95%Increased 1.0% since last hour.
  • Wind: Calm, 10-min avg: Calm, gust: None
  • Barometer: 29.50 in Steady
  • Visibility: ½ mile
  • Snow Today: 0.3 in
  •   

Regional Weather Roundup
for Boston / Norton, MA

        
000
ASUS41 KBOX 141804
RWRBOX

REGIONAL WEATHER ROUNDUP
NATIONAL WEATHER SERVICE BOSTON/NORTON MA
200 PM EDT WED APR 14 2021

NOTE:  "FAIR" INDICATES FEW OR NO CLOUDS BELOW 12,000 FEET WITH NO 
SIGNIFICANT WEATHER AND/OR OBSTRUCTIONS TO VISIBILITY.

MAZALL-141900-
EASTERN MASSACHUSETTS
  
CITY           SKY/WX    TMP DP  RH WIND       PRES   REMARKS
BOSTON         MOSUNNY   50  39  66 E13       30.04F                  
6HR MIN TEMP:  49; 6HR MAX TEMP:  51;                                

BEVERLY        NOT AVBL                                               
LAWRENCE       SUNNY     58  41  53 E7G16     30.03F                  
BEDFORD        SUNNY     58  40  51 SE10      30.01F                  
BLUE HILL        N/A     55  37  50 E10       30.00F                  
NORWOOD        SUNNY     59  39  47 NE9G18    30.01F                  
MARSHFIELD     SUNNY     48  37  66 E8        30.04F                  
PLYMOUTH       SUNNY     51  37  58 NE10      30.03F                  
TAUNTON          N/A    N/A N/A N/A MISG      30.00F                  
NEW BEDFORD    SUNNY     58  39  49 SE8       30.01F                  
$$

MAZALL-141900-
CAPE COD AND THE ISLANDS
  
CITY           SKY/WX    TMP DP  RH WIND       PRES   REMARKS
FALMOUTH       SUNNY     54  36  50 NE14      30.03F                  
HYANNIS        SUNNY     52  36  54 N13G18    30.02S                  
CHATHAM        SUNNY     50  34  54 NE12      30.04F                  
PROVINCETOWN   SUNNY     48  38  68 N6          N/A                   
NANTUCKET      SUNNY     53  36  52 N13       30.03S                  
MARTHAS VNYRD  MOSUNNY   54  39  57 CALM      30.03S                  
$$
 
MAZALL-141900-
CENTRAL AND WESTERN MASSACHUSETTS
  
CITY           SKY/WX    TMP DP  RH WIND       PRES   REMARKS
WORCESTER      MOSUNNY   60  42  51 SE6       29.98F                  
6HR MIN TEMP:  45; 6HR MAX TEMP:  60;                                

FITCHBURG      SUNNY     63  41  44 SE6       29.98F                  
ORANGE         SUNNY     66  41  40 VRB3      29.95F                  
SPRINGFIELD    MOSUNNY   68  42  37 E8        29.93F                  
WESTFIELD      MOSUNNY   69  44  40 E6        29.93F                  
NORTH ADAMS    PTSUNNY   69  38  32 NW9       29.93F                  
PITTSFIELD     MOSUNNY   68  37  32 W10       29.93F                  
$$
 
RIZALL-141900-
RHODE ISLAND
  
CITY           SKY/WX    TMP DP  RH WIND       PRES   REMARKS
PROVIDENCE     MOSUNNY   57  42  57 SE8       30.02F                  
6HR MIN TEMP:  49; 6HR MAX TEMP:  57;                                

NEWPORT        SUNNY     53  40  61 S8        30.02F                  
BLOCK ISLAND   SUNNY     51  41  68 SE10      30.04S                  
SMITHFIELD     SUNNY     60  44  55 E7        30.00F                  
WESTERLY       SUNNY     50  41  71 S10       30.03F                  
$$
 
CTZALL-141900-
CONNECTICUT
  
CITY           SKY/WX    TMP DP  RH WIND       PRES   REMARKS
BRADLEY INTL   MOSUNNY   69  41  36 CALM      29.94F                  
6HR MIN TEMP:  49; 6HR MAX TEMP:  70;                                

HARTFORD       MOSUNNY   70  43  37 VRB5      29.94F                  
BRIDGEPORT     SUNNY     61  44  53 SW8       29.97F                  
DANBURY        MOSUNNY   72  39  30 VRB5      29.96F                  
GROTON         SUNNY     52  45  77 SE12      30.01F                  
NEW HAVEN      MOSUNNY   59  46  62 SE12      29.98F                  
CHESTER        FAIR      63  43  48 S9        29.99S                  
MERIDEN        PTSUNNY   66  43  43 S15       29.95F                  
WILLIMANTIC    SUNNY     65  44  46 VRB7      29.97F                  
OXFORD         MOSUNNY   70  40  33 NW8       29.96F                  
$$

MEZ002-015-021-024-NHZ003-005-008-011-012-014-VTZ005-008-141900-
NORTHERN NEW ENGLAND
  
CITY           SKY/WX    TMP DP  RH WIND       PRES   REMARKS
PORTLAND ME    MOSUNNY   54  40  59 SE9       30.01F                  
6HR MIN TEMP:  43; 6HR MAX TEMP:  55;                                

BANGOR ME      SUNNY     58  28  32 NW6       30.00F                  
CONCORD NH     SUNNY     64  40  41 SW5       29.97F                  
MANCHESTER NH  MOSUNNY   63  40  42 SE7       29.97F                  
NASHUA NH      SUNNY     62  41  46 VRB6      29.99F                  
PORTSMOUTH NH  MOSUNNY   53  38  57 SE6       30.03F                  
JAFFREY NH     SUNNY     64  41  42 VRB7      29.96F                  
KEENE NH       SUNNY     67  40  37 VRB5      29.94F                  
BURLINGTON VT  MOSUNNY   68  36  30 W8        29.93F                  
MT. WASHINGTON NOT AVBL                                               
$$

NYZ052-076-141900-
EASTERN NEW YORK
  
CITY           SKY/WX    TMP DP  RH WIND       PRES   REMARKS
ALBANY         PTSUNNY   66  43  43 CALM      29.94F                  
6HR MIN TEMP:  51; 6HR MAX TEMP:  67;                                

NEW YORK CITY  PTSUNNY   71  38  29 SW9       29.97F                  
6HR MIN TEMP:  53; 6HR MAX TEMP:  72;                                

$$
 
ANZALL-141900-
MARINE OBSERVATIONS
  
STATION/POSITION TIME  TEMP    WIND        PRES    VSBY  WAVE
                       AIR SEA DIR/SP/G                  HT/PER
                 (UTC) (F)     (DEG/KT/KT) (MB)    (MI)  (FT/S)
BOSTON BUOY      1740   44 45   90/  4/  6 1017.9F
BUZZARDS BAY     1700          140/  6/  6 1018.4F
NANTUCKET SOUND  1740      47                N/A
MASS BAY-STELLWA 1704   44      80/  6/  8 1016.9F  1 7/8  4/ 8
ISLE OF SHOALS   1700   43     100/  7/  7 1017.3F
S OF BLOCK IS    1726      45                N/A           3/13
$$

......................KEY.........................
  SKY/WX - SKY CONDITION/PRESENT WEATHER
  TMP    - TEMPERATURE IN FAHRENHEIT
  DWPT   - DEWPOINT IN FAHRENHEIT
  RH     - RELATIVE HUMIDITY IN PERCENT
  WIND   - DIRECTION AND SPEED IN MPH
  PRES   - MEAN SEA LEVEL PRESSURE IN INCHES OF HG
  WCI    - WIND CHILL INDEX
  VSB    - VISIBILITY IN MILES
  HX     - HEAT INDEX
  TC     - TEMPERATURE IN CELSIUS
  VRB    - VARIABLE WIND DIRECTION
  N/A    - NOT AVAILABLE
  
      

Other recent Regional Weather Roundups

Fri Apr 16, 9:04am

Fri Apr 16, 8:04am

Fri Apr 16, 7:04am

Fri Apr 16, 6:04am

Fri Apr 16, 5:04am

Fri Apr 16, 4:04am

Fri Apr 16, 3:04am

Fri Apr 16, 2:04am

Fri Apr 16, 1:04am

Fri Apr 16, 12:04am

Thu Apr 15, 11:05pm

Thu Apr 15, 10:04pm

Thu Apr 15, 9:04pm

Thu Apr 15, 8:04pm

Thu Apr 15, 7:05pm

Thu Apr 15, 6:04pm

Thu Apr 15, 5:05pm

Thu Apr 15, 4:04pm

Thu Apr 15, 3:05pm

Thu Apr 15, 2:04pm

Thu Apr 15, 1:05pm

Thu Apr 15, 12:04pm

Thu Apr 15, 11:04am

Thu Apr 15, 10:05am

Thu Apr 15, 9:04am

Thu Apr 15, 8:04am

Thu Apr 15, 7:04am

Thu Apr 15, 6:04am

Thu Apr 15, 5:04am

Thu Apr 15, 4:04am

Thu Apr 15, 3:04am

Thu Apr 15, 2:04am

Thu Apr 15, 1:04am

Thu Apr 15, 12:04am

Wed Apr 14, 11:04pm

Wed Apr 14, 10:04pm

Wed Apr 14, 9:04pm

Wed Apr 14, 8:04pm

Wed Apr 14, 7:04pm

Wed Apr 14, 6:04pm

Wed Apr 14, 5:05pm

Wed Apr 14, 4:04pm

Wed Apr 14, 3:05pm

Wed Apr 14, 1:05pm

Wed Apr 14, 12:04pm

Wed Apr 14, 11:04am

Wed Apr 14, 10:04am

Wed Apr 14, 9:04am

Wed Apr 14, 8:04am

Wed Apr 14, 7:04am

Wed Apr 14, 6:04am

Wed Apr 14, 5:04am

Wed Apr 14, 4:04am

Wed Apr 14, 3:04am

Wed Apr 14, 2:04am

Wed Apr 14, 1:04am

Wed Apr 14, 12:04am

Tue Apr 13, 11:04pm

Tue Apr 13, 10:05pm

Tue Apr 13, 9:05pm

Tue Apr 13, 8:05pm

Tue Apr 13, 7:04pm

Tue Apr 13, 6:04pm

Tue Apr 13, 5:05pm

Tue Apr 13, 4:04pm

Tue Apr 13, 3:04pm

Tue Apr 13, 2:05pm

Tue Apr 13, 1:04pm

Tue Apr 13, 12:05pm

Tue Apr 13, 11:05am

Tue Apr 13, 10:04am

Tue Apr 13, 9:04am

Tue Apr 13, 8:04am

Tue Apr 13, 7:04am

Tue Apr 13, 6:04am

Tue Apr 13, 5:04am

Tue Apr 13, 4:04am

Tue Apr 13, 3:04am

Tue Apr 13, 2:04am

Tue Apr 13, 1:04am

Tue Apr 13, 12:05am

Mon Apr 12, 11:04pm

Mon Apr 12, 10:04pm

Mon Apr 12, 9:04pm

Mon Apr 12, 8:04pm

Mon Apr 12, 7:05pm

Mon Apr 12, 6:04pm

Mon Apr 12, 5:04pm

Mon Apr 12, 4:04pm

Mon Apr 12, 3:05pm

Mon Apr 12, 2:04pm

Mon Apr 12, 1:05pm

Mon Apr 12, 12:04pm

Mon Apr 12, 11:04am

Mon Apr 12, 10:04am

Mon Apr 12, 9:04am

Mon Apr 12, 8:04am

Mon Apr 12, 7:04am

Mon Apr 12, 6:04am

Mon Apr 12, 5:04am

Mon Apr 12, 4:04am

Mon Apr 12, 3:04am

Mon Apr 12, 2:04am

Mon Apr 12, 1:05am

Mon Apr 12, 12:04am

Sun Apr 11, 11:04pm

Sun Apr 11, 10:04pm

Sun Apr 11, 9:04pm

Sun Apr 11, 8:04pm

Sun Apr 11, 7:04pm

Sun Apr 11, 6:05pm

Sun Apr 11, 5:05pm

Sun Apr 11, 4:04pm

Sun Apr 11, 3:05pm

Sun Apr 11, 2:05pm

Sun Apr 11, 1:05pm

Sun Apr 11, 12:04pm

Sun Apr 11, 11:05am

Sun Apr 11, 10:05am

Sun Apr 11, 9:04am

Sun Apr 11, 8:04am

Sun Apr 11, 7:04am

Sun Apr 11, 6:04am

Sun Apr 11, 5:04am

Sun Apr 11, 4:04am

Sun Apr 11, 3:04am

Sun Apr 11, 2:04am

Sun Apr 11, 1:05am

Sun Apr 11, 12:04am

Sat Apr 10, 11:05pm

Sat Apr 10, 10:04pm

Sat Apr 10, 9:04pm

Sat Apr 10, 8:04pm

Sat Apr 10, 7:05pm

Sat Apr 10, 6:04pm

Sat Apr 10, 5:04pm

Sat Apr 10, 4:04pm

Sat Apr 10, 3:04pm

Sat Apr 10, 2:05pm

Sat Apr 10, 1:04pm

Sat Apr 10, 12:04pm

Sat Apr 10, 11:04am

Sat Apr 10, 10:04am

Sat Apr 10, 9:04am

Sat Apr 10, 8:04am

Sat Apr 10, 7:04am

Sat Apr 10, 6:04am

Sat Apr 10, 5:04am

Sat Apr 10, 4:04am

Sat Apr 10, 3:04am

Sat Apr 10, 2:04am

Sat Apr 10, 1:05am

Sat Apr 10, 12:04am

Fri Apr 9, 11:04pm

Fri Apr 9, 10:05pm

Fri Apr 9, 9:04pm

Fri Apr 9, 8:05pm

Fri Apr 9, 7:05pm

Fri Apr 9, 6:04pm

Fri Apr 9, 5:04pm

Fri Apr 9, 4:05pm

Fri Apr 9, 3:05pm

Fri Apr 9, 2:04pm

Fri Apr 9, 1:04pm

Fri Apr 9, 12:04pm

Fri Apr 9, 11:05am

Fri Apr 9, 10:04am

Meta data:

ID: 99d67d8e-7ede-4a30-9f2f-70090633de92
Link: https://api.weather.gov/products/99d67d8e-7ede-4a30-9f2f-70090633de92